Hourly Data Report for September 07, 2012

HALIFAX STANFIELD INT'L A
NOVA SCOTIA

44°52'48.060" N
63°30'00.050" W
145.40 m
8202250
71395
YHZ

Download Data

Hourly Data (September 2012)
Hourly Data Report for September 7, 2012
TIME
LST
Temp Definition
°C
Dew Point Definition
°C
Rel Hum Definition
%
Precip. Amount Definition
mm

Wind Dir Definition
10's deg

Wind Spd Definition
km/h
Visibility Definition
km
Stn Press Definition
kPa
Hmdx Definition


Wind Chill Definition


Weather Definition


00:00 15.4 15.4 100   31 19 8.0 99.09     Drizzle, Fog
01:00 15.3 15.3 100   30 17 6.4 99.11     Drizzle, Fog
02:00 15.3 15.3 100   31 22 19.3 99.14     Cloudy
03:00 15.0 15.0 100   31 19 4.8 99.17     Drizzle, Fog
04:00 15.0 15.0 100   31 26 9.7 99.20     Fog
05:00 14.9 14.9 100   32 30 9.7 99.25     Fog
06:00 14.8 14.8 100   32 22 9.7 99.35     Fog
07:00 15.0 15.0 100   32 28 24.1 99.39     Mostly Cloudy
08:00 15.8 14.5 92   34 26 24.1 99.46     Mostly Cloudy
09:00 16.5 14.5 88   34 26 24.1 99.51     Mostly Cloudy
10:00 17.7 14.7 83   36 20 24.1 99.55     Mostly Cloudy
11:00 18.3 14.9 81   33 15 24.1 99.58     Mostly Cloudy
12:00 18.7 14.7 78   36 15 24.1 99.59     Mostly Cloudy
13:00 20.0 15.3 74   35 11 24.1 99.59     Mostly Cloudy
14:00 20.9 15.5 71   35 13 24.1 99.57 25   Mostly Cloudy
15:00 21.0 15.0 69   30 11 24.1 99.57 25   Mostly Cloudy
16:00 22.1 15.1 65   33 11 24.1 99.61 26   Mainly Clear
17:00 21.6 15.5 68   23 9 24.1 99.61 26   Mainly Clear
18:00 20.4 16.3 77   19 6 24.1 99.63 25   Mostly Cloudy
19:00 18.2 16.3 89   21 13 24.1 99.66     Mostly Cloudy
20:00 17.4 15.7 90   20 11 24.1 99.71     Cloudy
21:00 17.2 16.0 93   17 9 24.1 99.67     Mostly Cloudy
22:00 16.5 16.1 97   17 7 24.1 99.72     Cloudy
23:00 16.6 16.6 100   19 6 24.1 99.73     Cloudy

Notes on Data Quality.

Legend

  • E = Estimated
  • M = Missing
  • NA = Not Available*
  • [empty] = Indicates an unobserved value
Date modified: